When you browse on this site, cookies collect data to enhance your experience and personalize the content and advertising you see.
Visit our Privacy Policy to learn more. By continuing to use the site, you agree to this use of cookies and data.
  • în România
  • Lista ţărilor
  • Pe 7 zile
  • Temperatura apei
  • Hartă satelitară
  • Meteo pe hartă
  • Widget-uri
  • user-avatar
    Intrare

    Meteo pe oră la Kiustendil

    Astăzi, 22 Aprilie, Luni

    Timp Temperatura Precipitaţii Vânt Presiune Umiditate
    00:00 +1°C° 0 mm 1 m/s 624 mmHg 68%
    01:00 +1°C° 0 mm 1 m/s 624 mmHg 80%
    02:00 0°C° 0 mm 1 m/s 624 mmHg 83%
    03:00 0°C° 0 mm 1 m/s 623 mmHg 86%
    04:00 0°C° 0 mm 1 m/s 623 mmHg 89%
    05:00 +1°C° 0 mm 1 m/s 624 mmHg 82%
    06:00 +3°C° 0 mm 1 m/s 624 mmHg 75%
    07:00 +5°C° 0 mm 1 m/s 625 mmHg 68%
    08:00 +6°C° 0 mm 2 m/s 626 mmHg 60%
    09:00 +8°C° 0 mm 2 m/s 626 mmHg 52%
    10:00 +9°C° 0 mm 3 m/s 626 mmHg 44%
    11:00 +10°C° 0 mm 3 m/s 627 mmHg 43%
    12:00 +11°C° 0 mm 3 m/s 627 mmHg 41%
    13:00 +12°C° 0 mm 4 m/s 627 mmHg 39%
    14:00 +11°C° 0 mm 4 m/s 626 mmHg 43%
    15:00 +11°C° 0 mm 4 m/s 626 mmHg 47%
    16:00 +9°C° 0 mm 5 m/s 625 mmHg 52%
    17:00 +7°C° 0 mm 4 m/s 624 mmHg 60%
    18:00 +5°C° 0 mm 3 m/s 624 mmHg 68%
    19:00 +4°C° 0 mm 2 m/s 623 mmHg 77%
    20:00 +4°C° 0.1 mm 2 m/s 623 mmHg 75%
    21:00 +3°C° 0.1 mm 3 m/s 624 mmHg 72%
    22:00 +3°C° 0.1 mm 3 m/s 624 mmHg 70%
    23:00 +2°C° 0.9 mm 3 m/s 624 mmHg 76%

    Mâine, 23 Aprilie, Marţi

    Timp Temperatura Precipitaţii Vânt Presiune Umiditate
    00:00 +1°C° 0.9 mm 3 m/s 624 mmHg 82%
    01:00 0°C° 0.9 mm 3 m/s 624 mmHg 87%
    02:00 +1°C° 0.6 mm 2 m/s 624 mmHg 88%
    03:00 +1°C° 0.6 mm 2 m/s 624 mmHg 88%
    04:00 +1°C° 0.6 mm 2 m/s 624 mmHg 88%
    05:00 +1°C° 0.8 mm 2 m/s 624 mmHg 87%
    06:00 +1°C° 0.8 mm 2 m/s 624 mmHg 85%
    07:00 0°C° 0.8 mm 3 m/s 624 mmHg 84%
    08:00 +2°C° 0.1 mm 3 m/s 625 mmHg 77%
    09:00 +4°C° 0.1 mm 4 m/s 626 mmHg 70%
    10:00 +6°C° 0.1 mm 5 m/s 627 mmHg 64%
    11:00 +6°C° 0.1 mm 5 m/s 627 mmHg 63%
    12:00 +7°C° 0.1 mm 5 m/s 626 mmHg 62%
    13:00 +7°C° 0.1 mm 6 m/s 626 mmHg 61%
    14:00 +7°C° 0 mm 6 m/s 626 mmHg 63%
    15:00 +5°C° 0 mm 6 m/s 626 mmHg 65%
    16:00 +5°C° 0 mm 6 m/s 625 mmHg 67%
    17:00 +5°C° 0 mm 5 m/s 625 mmHg 72%
    18:00 +3°C° 0 mm 4 m/s 625 mmHg 76%
    19:00 +2°C° 0 mm 3 m/s 625 mmHg 80%
    20:00 +2°C° 0 mm 3 m/s 625 mmHg 81%
    21:00 +1°C° 0 mm 3 m/s 625 mmHg 81%
    22:00 +2°C° 0 mm 2 m/s 625 mmHg 82%
    23:00 +2°C° 0 mm 2 m/s 625 mmHg 84%

    Poimâine, 24 Aprilie, Miercuri

    Timp Temperatura Precipitaţii Vânt Presiune Umiditate
    00:00 +1°C° 0 mm 2 m/s 625 mmHg 85%
    01:00 +1°C° 0 mm 2 m/s 625 mmHg 87%
    02:00 -1°C° 0 mm 2 m/s 625 mmHg 89%
    03:00 -1°C° 0 mm 2 m/s 625 mmHg 91%
    04:00 +1°C° 0 mm 1 m/s 625 mmHg 93%
    05:00 +1°C° 0 mm 2 m/s 626 mmHg 86%
    06:00 +3°C° 0 mm 2 m/s 627 mmHg 79%
    07:00 +5°C° 0 mm 2 m/s 628 mmHg 73%
    08:00 +7°C° 0 mm 2 m/s 628 mmHg 66%
    09:00 +9°C° 0 mm 2 m/s 629 mmHg 59%
    10:00 +11°C° 0 mm 3 m/s 630 mmHg 52%
    11:00 +12°C° 0 mm 3 m/s 630 mmHg 49%
    12:00 +13°C° 0 mm 3 m/s 630 mmHg 47%
    13:00 +14°C° 0 mm 3 m/s 630 mmHg 44%
    14:00 +14°C° 0 mm 3 m/s 630 mmHg 46%
    15:00 +13°C° 0 mm 3 m/s 630 mmHg 48%
    16:00 +13°C° 0 mm 3 m/s 629 mmHg 51%
    17:00 +12°C° 0 mm 2 m/s 629 mmHg 59%
    18:00 +9°C° 0 mm 2 m/s 628 mmHg 68%
    19:00 +8°C° 0 mm 1 m/s 627 mmHg 77%
    20:00 +7°C° 0 mm 1 m/s 628 mmHg 80%
    21:00 +6°C° 0 mm 1 m/s 628 mmHg 83%
    22:00 +6°C° 0 mm 1 m/s 628 mmHg 85%
    23:00 +5°C° 0 mm 1 m/s 628 mmHg 87%

    25 Aprilie, Joi

    Timp Temperatura Precipitaţii Vânt Presiune Umiditate
    00:00 +5°C° 0 mm 1 m/s 628 mmHg 88%
    01:00 +5°C° 0 mm 1 m/s 627 mmHg 89%
    02:00 +4°C° 0 mm 1 m/s 627 mmHg 89%
    03:00 +4°C° 0 mm 1 m/s 627 mmHg 89%
    04:00 +3°C° 0 mm 0 m/s 627 mmHg 90%
    05:00 +6°C° 0 mm 1 m/s 628 mmHg 83%
    06:00 +8°C° 0 mm 1 m/s 629 mmHg 77%
    07:00 +9°C° 0 mm 1 m/s 630 mmHg 70%
    08:00 +11°C° 0 mm 1 m/s 630 mmHg 64%
    09:00 +13°C° 0 mm 1 m/s 631 mmHg 58%
    10:00 +14°C° 0 mm 2 m/s 631 mmHg 53%
    11:00 +15°C° 0 mm 2 m/s 631 mmHg 50%
    12:00 +16°C° 0 mm 2 m/s 631 mmHg 47%
    13:00 +16°C° 0 mm 3 m/s 631 mmHg 44%
    14:00 +16°C° 0 mm 3 m/s 631 mmHg 47%
    15:00 +15°C° 0 mm 2 m/s 630 mmHg 49%
    16:00 +15°C° 0 mm 2 m/s 630 mmHg 52%
    17:00 +13°C° 0 mm 2 m/s 629 mmHg 60%
    18:00 +10°C° 0 mm 2 m/s 628 mmHg 69%
    19:00 +9°C° 0 mm 1 m/s 628 mmHg 78%
    20:00 +9°C° 0 mm 1 m/s 628 mmHg 81%
    21:00 +8°C° 0 mm 1 m/s 628 mmHg 85%
    22:00 +7°C° 0 mm 1 m/s 628 mmHg 88%
    23:00 +7°C° 0 mm 1 m/s 627 mmHg 90%

    26 Aprilie, Vineri

    Timp Temperatura Precipitaţii Vânt Presiune Umiditate
    00:00 +6°C° 0 mm 1 m/s 627 mmHg 91%
    01:00 +6°C° 0 mm 1 m/s 627 mmHg 92%
    02:00 +5°C° 0 mm 1 m/s 626 mmHg 93%
    03:00 +5°C° 0 mm 1 m/s 626 mmHg 93%
    04:00 +4°C° 0 mm 0 m/s 626 mmHg 93%
    05:00 +7°C° 0 mm 1 m/s 627 mmHg 86%
    06:00 +8°C° 0 mm 1 m/s 628 mmHg 80%
    07:00 +10°C° 0 mm 1 m/s 628 mmHg 73%
    08:00 +12°C° 0 mm 1 m/s 629 mmHg 66%
    09:00 +14°C° 0 mm 1 m/s 629 mmHg 59%
    10:00 +16°C° 0 mm 2 m/s 630 mmHg 52%
    11:00 +16°C° 0 mm 2 m/s 630 mmHg 49%
    12:00 +17°C° 0 mm 2 m/s 630 mmHg 47%
    13:00 +18°C° 0 mm 2 m/s 630 mmHg 44%
    14:00 +17°C° 0.1 mm 2 m/s 629 mmHg 45%
    15:00 +17°C° 0.1 mm 2 m/s 629 mmHg 46%
    16:00 +17°C° 0.1 mm 2 m/s 628 mmHg 47%
    17:00 +14°C° 0 mm 2 m/s 628 mmHg 57%
    18:00 +12°C° 0 mm 2 m/s 627 mmHg 66%
    19:00 +10°C° 0 mm 1 m/s 626 mmHg 76%
    20:00 +9°C° 0 mm 1 m/s 626 mmHg 80%
    21:00 +8°C° 0 mm 1 m/s 626 mmHg 85%
    22:00 +7°C° 0 mm 1 m/s 625 mmHg 90%
    23:00 +7°C° 0 mm 1 m/s 625 mmHg 91%

    27 Aprilie, Sâmbătă

    Timp Temperatura Precipitaţii Vânt Presiune Umiditate
    00:00 +7°C° 0 mm 1 m/s 625 mmHg 92%
    01:00 +6°C° 0 mm 1 m/s 624 mmHg 93%
    02:00 +6°C° 0.2 mm 1 m/s 624 mmHg 94%
    03:00 +6°C° 0.2 mm 1 m/s 624 mmHg 94%
    04:00 +5°C° 0.2 mm 1 m/s 624 mmHg 95%
    05:00 +7°C° 0.1 mm 1 m/s 624 mmHg 89%
    06:00 +8°C° 0.1 mm 1 m/s 625 mmHg 83%
    07:00 +10°C° 0.1 mm 1 m/s 625 mmHg 78%
    08:00 +10°C° 0 mm 2 m/s 626 mmHg 71%
    09:00 +13°C° 0 mm 2 m/s 626 mmHg 64%
    10:00 +15°C° 0 mm 2 m/s 626 mmHg 57%
    11:00 +14°C° 0.2 mm 3 m/s 626 mmHg 54%
    12:00 +16°C° 0.2 mm 3 m/s 626 mmHg 52%
    13:00 +17°C° 0.2 mm 3 m/s 626 mmHg 49%
    14:00 +16°C° 1.2 mm 3 m/s 625 mmHg 54%
    15:00 +14°C° 1.2 mm 3 m/s 624 mmHg 58%
    16:00 +13°C° 1.2 mm 3 m/s 624 mmHg 62%
    17:00 +12°C° 1 mm 2 m/s 623 mmHg 69%
    18:00 +10°C° 1 mm 2 m/s 623 mmHg 75%
    19:00 +8°C° 1 mm 2 m/s 622 mmHg 82%
    20:00 +7°C° 1.1 mm 2 m/s 622 mmHg 85%
    21:00 +8°C° 1.1 mm 1 m/s 622 mmHg 89%
    22:00 +7°C° 1.1 mm 1 m/s 622 mmHg 93%
    23:00 +7°C° 1 mm 1 m/s 622 mmHg 93%
    Arată mai mult